Wind_Speed
38 40 41 41 42 41 40 41 41 41 39 39 40 39 38 40 40 37 31 36 35 32 30 29 30 30 28 24 29 28 27 22 21 21 21 21 20 17 16 16 14 15 12
43 42 41 42 42 43 43 43 43 44 46 46 45 43 44 42 44 40 39 35 27 37 37 34 31 30 34 28 28 30 31 28 25 23 24 23 23 21 20 19 18 17 16
40 43 43 43 44 45 46 48 48 48 49 49 48 48 47 46 46 47 43 43 35 30 35 36 36 31 33 32 29 29 32 32 29 28 26 25 24 25 23 23 21 21 21
43 43 45 46 48 50 51 51 52 51 50 50 49 50 48 50 48 50 49 49 46 39 39 35 36 38 35 36 31 29 32 33 34 32 30 28 26 26 26 25 24 23 22
46 47 48 50 51 52 52 53 53 54 56 55 54 53 54 55 53 54 54 55 55 50 45 42 37 36 38 37 36 30 25 32 32 35 34 33 29 27 28 28 27 26 25
49 49 51 52 53 55 57 59 60 62 63 66 65 63 62 60 60 59 58 60 61 60 53 49 46 42 38 40 39 37 29 27 33 36 35 35 33 30 29 30 29 28 27
55 58 59 60 62 63 63 65 67 68 70 71 72 74 73 69 66 67 65 62 64 64 62 55 54 50 46 44 50 44 38 35 30 33 40 36 33 32 34 32 31 30 29
62 63 65 65 66 67 67 67 69 72 73 74 76 77 79 78 72 67 68 69 71 66 67 65 59 61 49 51 50 55 44 44 44 35 40 42 40 38 36 37 35 33 32
64 65 66 68 69 71 72 74 76 78 79 80 82 84 84 84 83 81 74 67 62 66 66 68 64 68 65 55 49 57 59 54 50 43 42 42 40 42 42 41 39 37 34
66 68 70 73 75 78 80 83 86 88 88 88 86 84 88 86 82 82 80 73 73 68 73 74 57 57 58 55 52 50 52 58 53 50 48 42 40 36 42 42 41 40 38
71 73 76 77 80 83 87 91 92 94 94 95 95 93 86 88 82 84 81 84 81 76 69 72 67 60 61 60 54 53 47 54 56 52 54 46 43 41 42 47 45 43 42
73 76 79 83 86 90 94 98 102 104 104 101 97 88 90 93 93 89 88 83 82 72 70 75 69 69 66 62 64 57 58 51 57 51 54 51 45 43 43 44 48 47 42
80 85 90 94 97 100 102 105 106 104 103 99 92 82 84 98 105 104 98 81 91 71 79 78 80 71 64 60 62 52 52 43 41 42 54 56 48 45 46 44 45 46 44
87 90 93 94 95 92 87 85 85 83 68 54 55 58 68 90 97 104 106 104 80 79 70 87 79 66 74 65 63 63 59 53 45 46 55 59 54 48 44 46 46 44 45
89 90 85 82 77 75 74 72 55 45 45 50 55 59 64 64 68 53 63 95 105 89 80 65 66 75 73 69 71 57 56 53 51 55 57 54 50 53 47 47 48 46 46
80 76 70 66 64 60 54 46 40 42 44 45 46 48 50 47 52 53 63 51 84 101 88 62 64 62 69 77 76 70 63 57 52 50 50 55 52 53 49 50 52 51 49
64 62 60 57 52 46 37 38 38 39 37 40 45 44 39 31 35 47 58 61 53 64 76 79 79 74 64 71 79 69 77 56 60 58 55 60 56 58 55 56 54 54 50
60 58 53 50 43 35 36 37 36 32 35 33 37 37 32 30 27 37 50 51 69 67 66 84 57 46 69 70 74 80 62 64 67 69 61 61 64 60 58 57 57 56 54
56 51 49 44 39 36 37 36 32 31 31 32 29 31 30 28 29 25 32 55 50 50 54 73 93 65 48 63 64 73 72 69 64 60 61 61 64 55 57 57 59 57 55
50 47 46 42 40 39 39 41 34 31 28 28 27 25 26 25 17 24 23 35 47 47 39 46 71 67 48 55 49 56 61 65 64 60 62 65 68 61 58 62 62 57 59
48 46 46 45 45 43 42 36 34 30 26 28 26 24 23 21 23 20 25 21 32 35 39 45 55 67 61 48 56 58 61 72 68 68 67 64 67 63 61 64 63 61 61
48 47 46 45 46 46 40 37 33 29 28 28 26 22 21 22 22 22 22 22 27 27 33 44 50 56 48 43 53 67 72 59 62 66 72 67 67 64 62 63 64 63 64
50 48 45 46 44 40 39 39 37 33 32 29 25 22 21 20 19 22 23 24 28 27 32 43 55 48 53 39 43 55 66 68 58 69 69 68 60 61 62 63 66 67 65
51 51 47 46 43 43 41 38 37 36 35 32 27 25 24 21 19 20 22 24 27 30 25 34 45 50 46 46 44 40 48 57 56 67 68 62 61 60 58 60 62 58 57
54 53 52 50 52 48 45 40 38 39 38 35 31 28 26 22 20 18 20 23 24 26 28 25 40 46 47 50 51 43 51 46 46 55 68 61 62 63 61 55 55 52 50
57 54 52 51 50 52 51 47 42 41 39 38 36 32 30 26 25 21 21 20 24 24 29 19 30 40 46 46 48 52 58 57 56 51 51 62 67 60 58 54 53 47 49
Wind_Direction
285 288 285 284 284 283 279 279 281 282 281 281 281 280 280 286 291 293 297 292 283 290 293 299 300 299 296 287 271 257 244 237 245 252 247 248 244 240 237 244 250 252 263
280 285 285 283 283 282 279 280 277 278 281 282 280 283 285 287 289 290 290 292 273 279 287 291 292 299 297 300 272 268 258 245 242 245 246 245 249 246 240 240 245 251 261
270 275 278 279 279 279 279 279 279 281 280 279 277 276 279 280 281 283 285 283 276 268 276 286 289 288 290 294 295 265 265 256 249 243 245 245 244 249 246 243 243 246 256
271 272 275 277 279 279 280 279 277 274 272 272 274 276 274 275 278 281 281 279 279 275 270 268 274 285 287 290 289 276 253 256 255 253 245 244 245 247 250 249 246 248 252
278 278 278 279 279 279 277 277 278 279 280 278 277 276 276 276 275 277 279 280 279 276 274 272 272 270 279 281 282 273 266 256 256 252 250 242 244 245 249 251 250 247 251
284 282 280 278 278 278 279 280 281 281 281 282 280 277 277 276 276 275 274 274 278 276 273 270 269 270 263 270 274 266 259 262 253 254 248 247 242 244 247 250 251 249 247
283 283 282 282 281 280 280 280 281 282 284 283 282 282 280 278 277 276 274 272 272 273 272 271 269 266 264 257 258 261 254 258 249 255 249 243 243 246 243 245 248 249 245
286 286 286 287 287 287 286 285 284 284 284 285 286 285 283 282 282 277 274 273 269 267 267 269 266 267 263 263 261 253 252 249 251 251 250 245 248 257 245 240 241 244 244
280 281 282 282 283 286 287 287 286 285 283 284 285 281 280 279 279 280 276 272 264 270 271 267 261 260 264 259 256 249 255 256 249 252 244 242 251 249 245 243 243 242 242
287 288 289 288 288 287 287 287 288 288 290 289 289 285 284 282 278 274 274 265 265 265 269 264 255 254 253 258 251 255 250 252 245 243 245 238 245 247 245 244 246 241 243
293 292 290 289 288 286 284 284 288 291 292 291 288 284 273 274 264 265 264 267 264 263 256 259 257 250 256 246 252 250 252 248 244 245 245 239 240 243 243 245 247 245 241
293 294 294 294 296 297 298 298 297 296 293 290 286 276 264 253 252 245 246 250 250 249 253 242 263 250 244 244 248 248 254 252 250 244 238 241 242 242 243 245 248 240 241
298 299 299 300 301 303 303 301 298 295 291 286 282 274 259 251 248 247 239 233 241 242 253 237 257 244 255 241 245 245 236 241 261 245 242 243 244 245 243 243 243 242 237
301 303 305 306 306 305 301 297 291 289 291 289 286 281 268 253 250 251 246 241 229 239 229 246 241 245 241 244 252 236 238 249 234 244 237 240 242 240 242 240 238 235 235
304 306 308 307 305 301 296 294 297 295 295 300 296 289 283 268 260 250 252 247 237 231 229 223 219 230 242 243 252 231 241 237 234 236 237 238 246 236 234 233 234 234 234
308 307 306 304 299 298 298 298 298 301 300 308 304 300 294 271 254 247 233 241 239 237 232 229 233 231 242 239 228 243 233 229 231 232 243 240 241 235 230 232 236 235 236
306 307 303 301 298 298 299 297 298 299 309 317 319 312 301 265 266 240 239 237 233 234 246 234 236 224 227 217 220 235 229 223 226 230 237 239 239 236 233 230 234 239 239
305 302 300 296 291 292 297 294 293 305 312 322 330 323 307 280 291 268 259 240 236 241 245 217 224 229 216 224 235 227 232 219 225 230 236 241 241 235 235 227 233 239 237
300 298 294 286 281 284 291 297 295 302 310 317 324 335 335 297 275 284 276 259 245 238 241 248 242 239 223 218 222 220 221 225 226 227 233 231 235 236 228 241 234 233 236
296 290 285 275 275 278 287 291 288 296 304 311 317 328 332 342 302 272 274 260 256 254 240 231 242 245 231 223 222 209 218 225 223 224 229 229 232 233 235 235 232 231 235
290 283 276 273 276 279 285 278 281 290 296 301 308 318 322 326 335 338 284 265 244 248 254 236 236 244 239 226 223 217 225 234 225 225 226 230 226 229 232 232 234 230 234
287 281 275 275 272 276 274 268 276 281 285 290 297 306 310 315 319 322 342 275 221 228 219 230 227 236 226 225 221 220 228 221 215 216 223 222 226 230 227 231 231 229 231
284 282 275 276 275 270 268 266 273 273 276 280 285 295 307 318 317 312 316 322 285 237 209 220 230 224 226 223 217 217 218 214 219 209 220 219 221 224 223 226 228 232 233
276 273 268 267 267 263 265 265 268 267 267 269 273 282 289 301 321 324 302 303 306 276 231 212 221 234 228 225 233 227 217 219 220 220 219 220 220 218 223 226 225 227 231
272 269 267 263 264 263 262 261 262 266 267 266 267 270 275 285 299 315 315 286 281 293 235 207 208 214 220 230 234 227 224 223 222 221 215 217 217 217 219 225 222 226 232
272 268 267 263 262 262 261 261 259 259 261 263 265 265 269 273 281 294 304 313 281 272 283 268 204 211 215 217 220 223 226 221 234 232 230 221 213 210 215 213 222 222 227
Height
5827 5826 5826 5825 5824 5824 5824 5825 5824 5823 5822 5821 5821 5819 5817 5816 5816 5817 5819 5819 5819 5819 5820 5819 5817 5816 5815 5816 5815 5816 5815 5816 5818 5819 5820 5822 5824 5824 5826 5827 5827 5828 5829
5819 5818 5817 5816 5816 5814 5815 5815 5815 5814 5813 5810 5810 5808 5807 5807 5807 5808 5810 5811 5811 5813 5813 5813 5812 5811 5809 5811 5811 5811 5813 5813 5813 5815 5816 5817 5820 5821 5822 5823 5824 5825 5827
5810 5809 5807 5806 5806 5806 5805 5805 5804 5803 5803 5802 5801 5799 5799 5799 5798 5798 5800 5801 5803 5804 5805 5806 5805 5805 5804 5803 5805 5805 5808 5810 5809 5809 5811 5813 5815 5817 5818 5819 5820 5821 5823
5801 5799 5798 5797 5796 5795 5794 5794 5793 5792 5791 5790 5788 5788 5788 5788 5790 5789 5790 5790 5791 5794 5796 5796 5798 5798 5798 5797 5798 5798 5798 5801 5804 5806 5805 5807 5809 5812 5814 5816 5816 5818 5819
5790 5790 5789 5787 5786 5784 5782 5781 5780 5778 5777 5776 5775 5774 5774 5774 5776 5777 5779 5779 5781 5782 5783 5787 5788 5789 5790 5790 5791 5792 5793 5794 5795 5798 5800 5800 5802 5806 5809 5811 5812 5813 5814
5781 5779 5777 5775 5773 5772 5770 5768 5767 5765 5763 5761 5761 5762 5762 5762 5762 5763 5765 5766 5767 5769 5771 5773 5776 5779 5779 5781 5782 5784 5785 5788 5789 5790 5792 5795 5795 5797 5801 5804 5806 5809 5808
5768 5765 5763 5762 5761 5759 5756 5753 5751 5748 5746 5743 5742 5741 5745 5748 5748 5747 5748 5750 5751 5754 5755 5759 5762 5765 5769 5769 5769 5774 5775 5778 5780 5783 5784 5787 5790 5791 5792 5796 5799 5801 5804
5753 5750 5748 5746 5744 5741 5739 5737 5735 5733 5732 5728 5724 5721 5722 5724 5728 5730 5732 5734 5736 5737 5739 5744 5746 5750 5753 5758 5757 5760 5762 5765 5769 5772 5775 5778 5781 5783 5786 5788 5791 5793 5797
5744 5740 5736 5732 5729 5726 5724 5720 5716 5713 5712 5711 5703 5701 5702 5703 5701 5705 5709 5712 5716 5720 5722 5725 5728 5731 5738 5741 5745 5744 5748 5755 5759 5761 5764 5768 5771 5774 5778 5780 5783 5786 5789
5727 5723 5719 5715 5712 5708 5704 5700 5695 5691 5687 5686 5681 5673 5672 5677 5676 5682 5683 5689 5691 5698 5702 5708 5710 5714 5722 5725 5730 5731 5733 5740 5746 5749 5753 5755 5759 5763 5767 5771 5775 5779 5781
5707 5704 5700 5696 5691 5686 5681 5677 5671 5667 5661 5657 5652 5648 5641 5643 5647 5647 5654 5663 5668 5675 5681 5685 5690 5697 5704 5708 5713 5716 5717 5723 5729 5736 5741 5746 5747 5752 5756 5760 5765 5770 5773
5689 5683 5678 5674 5668 5661 5654 5647 5640 5634 5629 5623 5617 5615 5613 5612 5614 5613 5620 5632 5639 5651 5656 5658 5666 5673 5682 5689 5696 5701 5705 5708 5714 5721 5727 5734 5737 5741 5745 5749 5754 5759 5764
5667 5659 5651 5643 5637 5630 5623 5617 5609 5601 5594 5588 5582 5579 5578 5580 5581 5584 5589 5599 5611 5625 5631 5636 5644 5653 5657 5665 5680 5682 5691 5695 5700 5708 5716 5720 5725 5728 5734 5738 5742 5747 5754
5644 5637 5631 5624 5615 5607 5598 5589 5582 5573 5567 5560 5556 5550 5546 5545 5547 5548 5556 5571 5580 5595 5594 5616 5625 5627 5635 5650 5659 5665 5674 5682 5686 5693 5698 5705 5710 5716 5721 5728 5730 5735 5741
5627 5618 5609 5601 5593 5587 5580 5572 5563 5558 5552 5546 5538 5530 5522 5521 5520 5526 5532 5541 5553 5561 5577 5583 5586 5607 5617 5630 5644 5644 5654 5666 5671 5677 5684 5691 5695 5701 5708 5715 5720 5723 5728
5608 5600 5592 5586 5578 5570 5564 5558 5553 5547 5541 5533 5523 5512 5501 5495 5497 5502 5510 5518 5527 5540 5542 5562 5572 5583 5597 5612 5624 5630 5640 5647 5653 5661 5672 5678 5683 5690 5696 5701 5708 5711 5716
5589 5582 5577 5570 5563 5558 5553 5549 5544 5539 5532 5524 5511 5500 5489 5484 5484 5488 5493 5501 5510 5518 5521 5536 5553 5567 5561 5585 5598 5611 5615 5627 5636 5647 5656 5663 5669 5676 5683 5689 5695 5701 5705
5572 5568 5561 5556 5553 5549 5545 5540 5536 5530 5524 5517 5506 5493 5483 5480 5478 5477 5478 5483 5491 5499 5504 5522 5535 5547 5555 5567 5581 5593 5600 5614 5623 5633 5641 5648 5655 5663 5668 5674 5682 5689 5693
5559 5553 5549 5546 5544 5540 5537 5532 5527 5523 5516 5509 5501 5492 5482 5475 5473 5471 5471 5474 5477 5486 5496 5508 5517 5532 5540 5550 5555 5571 5587 5601 5609 5619 5626 5633 5642 5649 5656 5662 5669 5676 5682
5545 5540 5537 5535 5533 5531 5528 5524 5519 5515 5510 5503 5495 5488 5481 5474 5469 5469 5470 5470 5470 5480 5489 5495 5507 5518 5529 5537 5544 5552 5569 5582 5592 5604 5611 5619 5628 5635 5643 5649 5657 5664 5670
5532 5528 5525 5523 5521 5519 5517 5514 5510 5506 5503 5498 5491 5484 5478 5473 5469 5464 5464 5463 5466 5473 5480 5487 5494 5506 5519 5523 5531 5542 5555 5568 5578 5588 5595 5602 5612 5619 5628 5637 5643 5651 5657
5517 5514 5512 5510 5509 5507 5506 5503 5500 5497 5494 5491 5486 5480 5476 5471 5466 5462 5459 5459 5461 5466 5471 5476 5485 5497 5509 5512 5518 5529 5543 5549 5560 5573 5584 5591 5598 5606 5615 5621 5631 5637 5645
5502 5500 5498 5498 5497 5495 5494 5492 5490 5488 5486 5483 5480 5476 5472 5468 5464 5461 5456 5454 5454 5460 5462 5465 5476 5485 5496 5502 5508 5517 5527 5538 5546 5561 5568 5576 5582 5592 5603 5612 5621 5626 5633
5487 5485 5484 5485 5485 5483 5482 5481 5479 5477 5476 5474 5473 5470 5467 5464 5461 5458 5454 5452 5450 5450 5456 5459 5465 5477 5479 5489 5498 5505 5514 5522 5532 5542 5551 5560 5571 5579 5589 5600 5608 5614 5620
5471 5469 5468 5468 5469 5469 5469 5468 5467 5466 5465 5464 5463 5463 5461 5458 5456 5455 5454 5451 5449 5448 5450 5451 5454 5462 5471 5481 5488 5494 5503 5512 5519 5528 5536 5545 5554 5567 5578 5589 5597 5604 5609
5452 5452 5451 5451 5452 5453 5453 5454 5454 5454 5454 5452 5452 5453 5453 5452 5450 5449 5448 5447 5444 5444 5444 5443 5446 5455 5462 5470 5476 5482 5491 5499 5511 5517 5527 5533 5544 5554 5564 5576 5584 5590 5596